www.pogodaiklimat.ru

Погода и климат >> Архив погоды >> Россия >> Эвенкия >> Тутончаны


ПОГОДА в Тутончанах

  • Прогноз погоды в Тутончанах
  • Монитор погоды в Тутончанах
  • Климат города

АРХИВ ПОГОДЫ в Тутончанах

Время (UTC), дата Ветер
(напр.,м/с)
 
Видим.   Явления Облачность Т
(С)
Тd
(С)
f
(%)
Тe
(С)
Тes
(С)
Комфортность P
(гПа)
Po
(гПа)
Тmin
(С)
Tmax
(С)
R
(мм)
R24
(мм)
S
(см)
15 9.07 штиль 0 50 км 9/3 1000 м
[Sc Cs]
+14.9 +12.2 84 +15 +15 1014.4 1001.7
18 9.07 С 1 50 км 5/3 1000 м
[Sc Ci fib]
+10.5 +9.7 95 +10 +10 1014.5 1001.7
21 9.07 С 1 50 км 8/3 1000 м
[Sc Ci fib]
+6.7 +6.3 97 +5 +6 1014.4 1001.4
00 10.07 В 1 50 км 3/0
[Ci fib]
+13.1 +9.4 78 +13 +17 1014.0 1001.2 +5.9
03 10.07 В 2 50 км 8/4 1000 м
[Sc Ac trans]
+19.1 +11.3 61 +21 +24 комфорт 1012.3 999.8
06 10.07 ЮЗ 4 50 км 9/8 1000 м
[Sc Ac trans]
+23.4 +9.7 42 +25 +26 комфорт 1011.0 998.7
09 10.07 З 2 50 км 10/10 600 м
[Cb cap]
+22.4 +10.6 47 +24 +24 комфорт 1010.9 998.5
12 10.07 СЗ 1 20 км слабый ливневой дождь 10/10 600 м
[Cb cap]
+17.1 +13.9 81 +18 +18 1011.7 999.1 +25.3 0.7
15 10.07 ЮЗ 1 20 км дым {ливн. осадки} 8/8 1000 м
[Sc]
+16.4 +15.0 91 +17 +17 1011.9 999.3
18 10.07 СВ 1 20 км дым {ливн. осадки} 6/3 1000 м
[Sc Ci fib]
+12.4 +11.6 95 +12 +12 1012.0 999.2
21 10.07 З 1 200 м туман ?/? +12.7 +12.0 96 +13 +13 1012.0 999.2
00 11.07 ЮЗ 2 200 м туман ?/? +13.3 +12.6 96 +12 +12 1012.1 999.4 +9.9 0.0
03 11.07 ЮЗ 4 50 км в посл. час туман 6/4 600 м
[Cu Sc Ac trans]
+16.0 +14.6 91 +15 +18 1011.7 999.1
06 11.07 ЮЗ 4 50 км {туман} 8/8 600 м
[Cu hum]
+22.8 +12.9 54 +26 +27 жарко 1010.5 998.2
09 11.07 СЗ 4 50 км 8/8 600 м
[Cu hum]
+23.8 +9.5 40 +25 +26 комфорт 1010.1 997.8
12 11.07 СЗ 3 50 км 4/4 600 м
[Cu hum]
+24.4 +8.1 35 +25 +26 комфорт 1009.9 997.7 +25.3
15 11.07 СЗ 2 50 км 1/1 1000 м
[Sc]
+17.6 +10.9 65 +18 +18 1010.8 998.2
18 11.07 штиль 0 50 км 1/1 1000 м
[Sc]
+9.4 +8.2 92 +9 +9 1011.8 998.9
21 11.07 штиль 0 50 км 3/1 1000 м
[Sc Ci fib]
+6.0 +5.5 97 +5 +5 1012.4 999.3
00 12.07 Ю 1 50 км 3/0
[Ci fib]
+12.3 +10.2 87 +12 +15 1012.4 999.6 +5.8
03 12.07 Ю 2 50 км 3/3 600 м
[Cu hum Ci fib]
+20.0 +9.8 52 +22 +28 комфорт 1011.3 998.8
06 12.07 ЮЗ 3 50 км 5/3 600 м
[Cu hum Ci fib]
+24.5 +6.1 31 +24 +31 комфорт 1009.3 997.1
09 12.07 ЮЗ 4 50 км 5/0
[Ci fib]
+25.6 +5.6 28 +25 +30 комфорт 1007.9 995.7
12 12.07 ЮЗ 2 50 км 5/0
[Ci fib]
+25.7 +6.6 30 +26 +27 жарко 1006.6 994.4 +26.4
15 12.07 штиль 0 50 км 8/4 1000 м
[Sc Ci fib]
+15.3 +12.2 82 +15 +15 1006.3 993.7
18 12.07 штиль 0 50 км 5/5 1000 м
[Sc]
+8.1 +7.2 94 +7 +7 1007.1 994.1
21 12.07 З 1 50 км 9/6 1000 м
[Sc Ac trans]
+6.8 +6.4 97 +6 +6 1006.9 993.9
00 13.07 штиль 0 50 км 8/6 1000 м
[Sc Ci fib]
+11.9 +10.2 89 +11 +13 1006.3 993.6 +6.8
03 13.07 СЗ 2 50 км 8/5 600 м
[Sc As op Ci fib]
+22.4 +8.0 40 +24 +27 комфорт 1004.3 992.1
09 13.07 СЗ 2 50 км 8/5 600 м
[Sc As trans Ci fib]
+22.4 +8.0 40 +24 +26 комфорт 1004.3 992.1
12 13.07 З 5 50 км 3/3 600 м
[Cu Sc Ci fib]
+21.3 +3.7 31 +21 +22 комфорт 1005.4 993.0 +25.3
15 13.07 З 2 50 км 3/0
[Ci fib]
+15.2 +4.8 50 +15 +15 1007.0 994.4
18 13.07 З 2 50 км 3/3 1000 м
[Sc]
+4.7 +3.7 93 +2 +2 1007.6 994.6
21 13.07 З 3 50 км 4/4 1000 м
[Sc]
+5.8 +4.2 89 +2 +2 1008.2 995.2
00 14.07 штиль 0 50 км 3/3 1000 м
[Sc]
+13.3 +6.9 65 +13 +16 1008.7 995.9 +3.3
03 14.07 С 3 50 км 9/9 600 м
[Cb cap]
+15.2 +7.6 60 +15 +15 1009.8 997.2
06 14.07 СЗ 3 50 км 8/8 600 м
[Cb cap]
+17.2 +7.7 54 +17 +19 1010.6 998.0
09 14.07 С 3 50 км 8/8 600 м
[Cb cap]
+19.7 +6.9 43 +21 +22 комфорт 1010.7 998.2
12 14.07 СЗ 3 50 км 4/0 1000 м
[Ci sp]
+20.0 +4.0 35 +21 +22 комфорт 1001.1 999.5 +2.0
00 15.07 штиль 0 50 км ясно +10.4 +6.1 75 +10 +14 1014.9 1002.1 +1.1
03 15.07 Ю 2 50 км 3/0
[Ci fib]
+17.7 +3.3 38 +18 +26 1015.1 1002.5
06 15.07 СЗ 3 50 км 4/0 1000 м
[Ci sp]
+20.0 +4.0 35 +21 +30 комфорт 1014.5 999.5 +21.7
09 15.07 С 3 50 км 4/4 600 м
[Cu hum]
+23.3 +3.0 26 +23 +27 комфорт 1013.8 1001.4
12 15.07 СЗ 3 50 км 3/3 600 м
[Cu hum Ci fib]
+23.4 +3.2 27 +23 +24 комфорт 1013.8 1001.4 +23.8
15 15.07 СЗ 2 50 км 3/3 1000 м
[Sc Ci fib]
+13.6 +8.9 73 +13 +13 1014.1 1001.4
18 15.07 С 1 50 км 3/3 1000 м
[Sc]
+6.4 +5.7 95 +5 +5 1014.9 1001.8
21 15.07 С 1 50 км 4/0
[Ci fib]
+4.3 +4.1 99 +3 +3 1015.9 1002.6
00 16.07 СВ 1 50 км 8/0
[St Ac trans]
+10.6 +7.5 81 +10 +12 1016.5 1007.5 +3.8
03 16.07 ЮВ 1 50 км ясно +17.8 +7.1 49 +19 +29 1016.0 1003.4

 

Местоположение метеостанции Тутончаны (Эвенкия, Россия): широта 64.20 долгота 93.78 высота над уровнем моря 106 м.

В архиве по умолчанию представлена погода в Тутончанах за последнюю неделю. Архивные данные за месяц целиком и за предыдущие месяцы, начиная с января 2011 года, Вы можете получить, выбрав интересующий диапазон дат из раскрывающегося списка и нажав кнопку "Ввод!".


*Определитесь, кто Вы:
робот инопланетянин человек

Внимание! Время в таблицах - всемирное. Для получения местного времени необходимо прибавить поправку, которая в Тутончанах равна 7 ч.

Смотрите также архив погоды в соседних городах и на ближайших метеорологических станциях:

Погода в Кузьмовке (Эвенкия, Россия) (225 км)
Погода в Большом Пороге (Эвенкия, Россия) (237 км)
Погода в Тембенчи (Эвенкия, Россия) (258 км)
Погода в Агате (Эвенкия, Россия) (298 км)
Погода в Верещагино (Красноярский край, Россия) (305 км)
Погода в Бахте (Красноярский край, Россия) (306 км)
Погода в Верхнеимбатске (Красноярский край, Россия) (310 км)
Погода в Байките (Эвенкия, Россия) (310 км)
Погода в Туре (Эвенкия, Россия) (320 км)
Погода в Туруханске (Красноярский край, Россия) (326 км)

Пояснения к столбцам:

Ветер - указаны скорость ветра в м/с - средняя за 10 мин, порывы в срок и между сроками (в фигурных скобках) и направление, откуда дует ветер: С - северный, СВ - северо-восточный, В - восточный, ЮВ - юго-восточный, Ю - южный, ЮЗ - юго-западный, З - западный, СЗ - северо-западный.
Видимость - горизонтальная дальность видимости в метрах или километрах. При видимости от 1 до 10 км при отсутствии осадков обычно наблюдается дымка, при ухудшении видимости до 1 км и менее - туман. В сухую погоду видимость может ухудшаться дымом, пылью или мглою.
Явления - указаны атмосферные явления, наблюдавшиеся в срок или в последний час перед сроком; фигурными скобками обозначены явления, наблюдавшиеся между сроками (за 1-3 часа до срока); квадратными скобками обозначены град или гололедные отложения с указанием их диаметра в мм.
Облачность - указаны через наклонную черту общая и нижняя облачность в баллах и высота нижней границы облаков в метрах; квадратными скобками обозначены формы облаков: Ci - перистые, Cs - перисто-слоистые, Cc - перисто-кучевые, Ac - высококучевые, As - высокослоистые, Sc - слоисто-кучевые, Ns - слоисто-дождевые, Cu - кучевые, Cb - кучево-дождевые. Подробнее классификацию облаков см. в Атласе облаков (PDF).
T - Температура воздуха - температура, измеренная на высоте 2 м над землей.
Td - Температура точки росы - температура, при понижении до которой содержащийся в воздухе водяной пар достигнет насыщения.
f - Относительная влажность воздуха - влажноcть воздуха, измеренная на высоте 2 м над землей.
Te - Эффективная температура - температура, которую ощущает одетый по сезону человек в тени. Характеристика душности погоды. При расчете учитывается влияние влажности воздуха и скорости ветра на теплоощущения человека.
Tes - Эффективная температура на солнце - температура, которую ощущает человек, с поправкой на солнечный нагрев. Характеристика знойности погоды. Зависит от высоты солнца над горизонтом, облачности и скорости ветра. Ночью, в пасмурную погоду, а также при ветре 12 м/с и более поправка равна нулю.
P - Атмосферное давление - приведенное к уровню моря атмосферное давление.
Po - Атмосферное давление - измеренное на уровне метеостанции атмосферное давление.
Tmin - Минимальная температура - минимум температуры воздуха на высоте 2 м над землей.
Tmax - Максимальная температура - максимум температуры воздуха на высоте 2 м над землей.
R - Количество осадков - Количество выпавших осадков за период времени, мм. При наведении курсора мыши на число - период времени, за который выпало указанное количество осадков.
R24 - Количество осадков - Количество выпавших осадков за 24 часа, мм.
S - Снежный покров - Высота снежного покрова, см. При наведении курсора мыши на число - состояние снежного покрова и степень покрытия местности в баллах.